Location: L�Adrech
(44.2500°N, 6.4167°E)
Time: 03:46:49
(UTC+00:00)

Cosmos 1455 - Pass Details

Date: 07 June 2020
Orbit: 499 x 523 km, 82.5° (Epoch: 04 July)

Event Time Altitude Azimuth Distance (km) Brightness Sun altitude
Rises 00:54:52 0° 339° (NNW) 2,601 6.5 -20.4°
Reaches altitude 10° 00:57:13 10° 327° (NNW) 1,713 5.3 -20.3°
Enters shadow 01:00:05 25° 278° (W) 1,031 3.5 -20.1°
